^^
Your Local Weather - Clay, NY Station Historical Data
Daily Summary for February 7, 2017 Units:  Metric    English   Both
« Previous Day
Next Day »
Daily Weekly Monthly Yearly Custom
  High: Low: Average:
Temperature: 7.9 °C -2.8 °C 0.1 °C
Dew Point: 5.8 °C -7.1 °C -3.2 °C
Humidity: 94% 65% 79%
Wind Speed: 11.3km/h 0km/h 5.3km/h
Wind Gust: 24.1km/h - -
Wind- - East
Pressure: 1014.8 hPa 992.8 hPa -
Precipitation: 0.25 mm    
Historical Graphs
 
 
Tabular Data for February 7, 2017
Time Temperature Dew Point Pressure Wind Wind Speed Wind Gust Humidity Rainfall Rate (Hourly) solar
00:00 -2.8 °C -6.7 °C 1014.8 hPa East 1.6 km/h 4.8 km/h 75% 0 mm 0 W/m2
00:06 -2.8 °C -6.8 °C 1014.4 hPa ENE 4.8 km/h 12.9 km/h 74% 0 mm 0 W/m2
00:12 -2.8 °C -6.8 °C 1014.4 hPa ENE 4.8 km/h 4.8 km/h 74% 0 mm 0 W/m2
00:18 -2.8 °C -6.8 °C 1014.4 hPa ENE 3.2 km/h 4.8 km/h 74% 0 mm 0 W/m2
00:24 -2.7 °C -6.7 °C 1014.4 hPa ENE 3.2 km/h 6.4 km/h 74% 0 mm 0 W/m2
00:30 -2.7 °C -6.7 °C 1014.1 hPa NE 3.2 km/h 3.2 km/h 74% 0 mm 0 W/m2
00:36 -2.7 °C -6.7 °C 1014.1 hPa East 3.2 km/h 3.2 km/h 74% 0 mm 0 W/m2
00:42 -2.7 °C -6.7 °C 1013.8 hPa ENE 3.2 km/h 4.8 km/h 74% 0 mm 0 W/m2
00:48 -2.7 °C -6.7 °C 1013.8 hPa ENE 4.8 km/h 6.4 km/h 74% 0 mm 0 W/m2
00:54 -2.7 °C -6.7 °C 1013.8 hPa East 4.8 km/h 4.8 km/h 74% 0 mm 0 W/m2
01:00 -2.7 °C -6.7 °C 1013.8 hPa East 1.6 km/h 1.6 km/h 74% 0 mm 0 W/m2
01:06 -2.7 °C -6.7 °C 1013.8 hPa ENE 1.6 km/h 6.4 km/h 74% 0 mm 0 W/m2
01:12 -2.7 °C -6.7 °C 1013.4 hPa East 4.8 km/h 4.8 km/h 74% 0 mm 0 W/m2
01:18 -2.7 °C -6.7 °C 1013.4 hPa ENE 3.2 km/h 4.8 km/h 74% 0 mm 0 W/m2
01:24 -2.6 °C -6.6 °C 1013.4 hPa ENE 3.2 km/h 4.8 km/h 74% 0 mm 0 W/m2
01:30 -2.6 °C -6.6 °C 1013.4 hPa East 4.8 km/h 4.8 km/h 74% 0 mm 0 W/m2
01:36 -2.7 °C -6.7 °C 1013.1 hPa East 3.2 km/h 9.7 km/h 74% 0 mm 0 W/m2
01:42 -2.6 °C -6.6 °C 1013.1 hPa ENE 3.2 km/h 3.2 km/h 74% 0 mm 0 W/m2
01:48 -2.6 °C -6.6 °C 1013.1 hPa ENE 3.2 km/h 4.8 km/h 74% 0 mm 0 W/m2
01:54 -2.6 °C -6.6 °C 1013.1 hPa ENE 3.2 km/h 6.4 km/h 74% 0 mm 0 W/m2
02:00 -2.6 °C -6.6 °C 1013.1 hPa NE 4.8 km/h 4.8 km/h 74% 0 mm 0 W/m2
02:06 -2.5 °C -6.7 °C 1013.1 hPa East 4.8 km/h 8 km/h 73% 0 mm 0 W/m2
02:12 -2.4 °C -6.8 °C 1013.1 hPa NE 4.8 km/h 6.4 km/h 72% 0 mm 0 W/m2
02:18 -2.4 °C -6.8 °C 1013.1 hPa ENE 4.8 km/h 6.4 km/h 72% 0 mm 0 W/m2
02:24 -2.4 °C -6.8 °C 1013.1 hPa ENE 4.8 km/h 4.8 km/h 72% 0 mm 0 W/m2
02:30 -2.4 °C -6.8 °C 1013.1 hPa East 4.8 km/h 4.8 km/h 72% 0 mm 0 W/m2
02:36 -2.4 °C -6.8 °C 1013.1 hPa SSE 3.2 km/h 6.4 km/h 72% 0 mm 0 W/m2
02:42 -2.3 °C -6.7 °C 1012.8 hPa ENE 3.2 km/h 11.3 km/h 72% 0 mm 0 W/m2
02:48 -2.3 °C -6.9 °C 1012.8 hPa NNE 4.8 km/h 11.3 km/h 71% 0 mm 0 W/m2
02:54 -2.3 °C -6.8 °C 1012.8 hPa ENE 4.8 km/h 8 km/h 71% 0 mm 0 W/m2
03:00 -2.3 °C -6.8 °C 1012.8 hPa ENE 6.4 km/h 6.4 km/h 71% 0 mm 0 W/m2
03:06 -2.2 °C -6.8 °C 1012.8 hPa East 4.8 km/h 6.4 km/h 71% 0 mm 0 W/m2
03:12 -2.2 °C -6.8 °C 1012.8 hPa ENE 6.4 km/h 11.3 km/h 71% 0 mm 0 W/m2
03:18 -2.2 °C -6.9 °C 1012.4 hPa East 8 km/h 11.3 km/h 70% 0 mm 0 W/m2
03:24 -2.2 °C -6.7 °C 1012.4 hPa ENE 8 km/h 16.1 km/h 71% 0 mm 0 W/m2
03:30 -2.2 °C -6.7 °C 1012.1 hPa NE 8 km/h 8 km/h 71% 0 mm 0 W/m2
03:36 -2.2 °C -6.9 °C 1012.1 hPa East 6.4 km/h 9.7 km/h 70% 0 mm 0 W/m2
03:42 -2.2 °C -6.7 °C 1012.1 hPa ENE 6.4 km/h 12.9 km/h 71% 0 mm 0 W/m2
03:48 -2.1 °C -6.8 °C 1012.1 hPa ENE 6.4 km/h 12.9 km/h 70% 0 mm 0 W/m2
03:54 -2.2 °C -6.9 °C 1012.1 hPa ENE 8 km/h 11.3 km/h 70% 0 mm 0 W/m2
04:00 -2.2 °C -6.7 °C 1011.7 hPa ENE 6.4 km/h 8 km/h 71% 0 mm 0 W/m2
04:06 -2.2 °C -6.7 °C 1011.7 hPa ENE 6.4 km/h 16.1 km/h 71% 0 mm 0 W/m2
04:12 -2.2 °C -6.9 °C 1011.7 hPa ENE 8 km/h 14.5 km/h 70% 0 mm 0 W/m2
04:18 -2.2 °C -6.9 °C 1011.7 hPa East 8 km/h 17.7 km/h 70% 0 mm 0 W/m2
04:24 -2.2 °C -6.9 °C 1011.7 hPa ENE 8 km/h 8 km/h 70% 0 mm 0 W/m2
04:30 -2.2 °C -6.9 °C 1011.7 hPa ENE 4.8 km/h 6.4 km/h 70% 0 mm 0 W/m2
04:36 -2.1 °C -7.1 °C 1011.7 hPa East 8 km/h 12.9 km/h 69% 0 mm 0 W/m2
04:42 -2.1 °C -6.8 °C 1011.7 hPa East 8 km/h 8 km/h 70% 0 mm 0 W/m2
04:48 -2 °C -6.9 °C 1012.1 hPa East 8 km/h 8 km/h 69% 0 mm 0 W/m2
04:54 -2 °C -6.7 °C 1012.1 hPa East 6.4 km/h 6.4 km/h 70% 0 mm 0 W/m2
05:00 -1.9 °C -6.9 °C 1012.1 hPa East 6.4 km/h 9.7 km/h 69% 0 mm 0 W/m2
05:06 -1.9 °C -6.9 °C 1012.1 hPa East 8 km/h 9.7 km/h 69% 0 mm 0 W/m2
05:12 -1.9 °C -6.8 °C 1012.1 hPa ENE 6.4 km/h 6.4 km/h 69% 0 mm 0 W/m2
05:18 -1.8 °C -6.9 °C 1011.7 hPa East 6.4 km/h 14.5 km/h 68% 0 mm 0 W/m2
05:24 -1.8 °C -6.9 °C 1011.7 hPa ENE 9.7 km/h 14.5 km/h 68% 0 mm 0 W/m2
05:30 -1.8 °C -6.9 °C 1011.7 hPa ENE 6.4 km/h 14.5 km/h 68% 0 mm 0 W/m2
05:36 -1.8 °C -6.9 °C 1011.4 hPa East 4.8 km/h 14.5 km/h 68% 0 mm 0 W/m2
05:42 -1.8 °C -6.9 °C 1011.4 hPa North 6.4 km/h 6.4 km/h 68% 0 mm 0 W/m2
05:48 -1.8 °C -6.9 °C 1011.4 hPa ENE 6.4 km/h 6.4 km/h 68% 0 mm 0 W/m2
05:54 -1.8 °C -6.9 °C 1011.4 hPa ENE 8 km/h 12.9 km/h 68% 0 mm 0 W/m2
06:00 -1.8 °C -6.9 °C 1011.4 hPa East 8 km/h 11.3 km/h 68% 0 mm 0 W/m2
06:06 -1.8 °C -6.9 °C 1011.1 hPa ENE 8 km/h 12.9 km/h 68% 0 mm 0 W/m2
06:12 -1.8 °C -6.9 °C 1011.1 hPa NNE 8 km/h 14.5 km/h 68% 0 mm 0 W/m2
06:18 -1.7 °C -6.8 °C 1011.1 hPa NNE 8 km/h 20.9 km/h 68% 0 mm 0 W/m2
06:24 -1.8 °C -6.9 °C 1011.1 hPa East 9.7 km/h 14.5 km/h 68% 0 mm 0 W/m2
06:30 -1.8 °C -6.9 °C 1011.1 hPa East 8 km/h 8 km/h 68% 0 mm 0 W/m2
06:36 -1.7 °C -6.8 °C 1010.7 hPa ENE 8 km/h 11.3 km/h 68% 0 mm 0 W/m2
06:42 -1.7 °C -6.8 °C 1010.7 hPa East 8 km/h 8 km/h 68% 0 mm 0 W/m2
06:48 -1.7 °C -6.8 °C 1010.7 hPa East 8 km/h 14.5 km/h 68% 0 mm 0 W/m2
06:54 -1.7 °C -7.1 °C 1010.4 hPa ENE 8 km/h 8 km/h 67% 0 mm 0 W/m2
07:00 -1.7 °C -7.1 °C 1011.1 hPa ENE 6.4 km/h 11.3 km/h 67% 0 mm 0 W/m2
07:06 -1.7 °C -7.1 °C 1011.1 hPa East 8 km/h 11.3 km/h 67% 0 mm 0 W/m2
07:12 -1.7 °C -6.8 °C 1010.7 hPa NE 6.4 km/h 8 km/h 68% 0 mm 0 W/m2
07:18 -1.7 °C -7 °C 1010.7 hPa East 4.8 km/h 11.3 km/h 67% 0 mm 0 W/m2
07:24 -1.6 °C -7.1 °C 1010.7 hPa East 6.4 km/h 14.5 km/h 66% 0 mm 0 W/m2
07:30 -1.6 °C -6.9 °C 1010.4 hPa East 6.4 km/h 6.4 km/h 67% 0 mm 5 W/m2
07:36 -1.6 °C -6.9 °C 1010.4 hPa East 4.8 km/h 9.7 km/h 67% 0 mm 7 W/m2
07:42 -1.6 °C -6.9 °C 1010.4 hPa SE 8 km/h 8 km/h 67% 0 mm 9 W/m2
07:48 -1.4 °C -6.8 °C 1010.4 hPa East 6.4 km/h 9.7 km/h 67% 0 mm 12 W/m2
07:54 -1.4 °C -6.7 °C 1010.4 hPa East 6.4 km/h 11.3 km/h 67% 0 mm 14 W/m2
08:00 -1.3 °C -6.7 °C 1010.4 hPa ENE 6.4 km/h 6.4 km/h 67% 0 mm 18 W/m2
08:06 -1.2 °C -6.6 °C 1010.4 hPa ENE 6.4 km/h 12.9 km/h 67% 0 mm 19 W/m2
08:12 -1.1 °C -6.4 °C 1010.4 hPa ESE 6.4 km/h 6.4 km/h 67% 0 mm 23 W/m2
08:18 -1.1 °C -6.6 °C 1010.4 hPa ESE 6.4 km/h 6.4 km/h 66% 0 mm 25 W/m2
08:24 -0.9 °C -6.5 °C 1010.4 hPa ENE 6.4 km/h 19.3 km/h 66% 0 mm 25 W/m2
08:30 -0.8 °C -6.4 °C 1010.4 hPa ESE 8 km/h 11.3 km/h 66% 0 mm 30 W/m2
08:36 -0.8 °C -6.6 °C 1010.4 hPa East 6.4 km/h 12.9 km/h 65% 0 mm 37 W/m2
08:42 -0.7 °C -6.5 °C 1010.4 hPa East 4.8 km/h 6.4 km/h 65% 0 mm 40 W/m2
08:48 -0.7 °C -6.2 °C 1010.4 hPa ESE 6.4 km/h 8 km/h 66% 0 mm 49 W/m2
08:54 -0.7 °C -6.2 °C 1010 hPa ENE 8 km/h 12.9 km/h 66% 0 mm 44 W/m2
09:00 -0.6 °C -6.2 °C 1010 hPa East 9.7 km/h 9.7 km/h 66% 0 mm 51 W/m2
09:06 -0.6 °C -6.2 °C 1010 hPa ENE 8 km/h 16.1 km/h 66% 0 mm 60 W/m2
09:12 -0.6 °C -6.1 °C 1010 hPa East 8 km/h 11.3 km/h 66% 0 mm 62 W/m2
09:18 -0.5 °C -6.3 °C 1009.7 hPa ENE 8 km/h 11.3 km/h 65% 0 mm 70 W/m2
09:24 -0.4 °C -6 °C 1009.4 hPa East 8 km/h 11.3 km/h 66% 0 mm 69 W/m2
09:30 -0.4 °C -6 °C 1009.7 hPa NE 8 km/h 8 km/h 66% 0 mm 54 W/m2
09:36 -0.4 °C -6 °C 1009.7 hPa ENE 8 km/h 11.3 km/h 66% 0 mm 58 W/m2
09:42 -0.4 °C -6 °C 1009.4 hPa ENE 8 km/h 12.9 km/h 66% 0 mm 69 W/m2
09:48 -0.4 °C -6 °C 1009 hPa ESE 8 km/h 12.9 km/h 66% 0 mm 84 W/m2
09:54 -0.3 °C -5.7 °C 1009 hPa East 8 km/h 12.9 km/h 67% 0 mm 93 W/m2
10:00 -0.3 °C -5.9 °C 1009 hPa NE 9.7 km/h 17.7 km/h 66% 0 mm 93 W/m2
10:06 -0.3 °C -5.9 °C 1008.7 hPa SE 9.7 km/h 17.7 km/h 66% 0 mm 107 W/m2
10:12 -0.2 °C -5.8 °C 1008.7 hPa SE 8 km/h 16.1 km/h 66% 0 mm 111 W/m2
10:18 -0.2 °C -5.8 °C 1008.7 hPa East 9.7 km/h 16.1 km/h 66% 0 mm 104 W/m2
10:24 -0.1 °C -5.7 °C 1009 hPa ESE 9.7 km/h 9.7 km/h 66% 0 mm 98 W/m2
10:30 0 °C -5.6 °C 1009 hPa East 6.4 km/h 12.9 km/h 66% 0 mm 91 W/m2
10:36 0 °C -5.6 °C 1009 hPa ENE 8 km/h 16.1 km/h 66% 0 mm 98 W/m2
10:42 0.1 °C -5.6 °C 1008.7 hPa ESE 11.3 km/h 11.3 km/h 66% 0 mm 120 W/m2
10:48 0.1 °C -5.5 °C 1008.7 hPa ENE 9.7 km/h 11.3 km/h 66% 0 mm 97 W/m2
10:54 0.2 °C -5.4 °C 1008.4 hPa SSE 9.7 km/h 16.1 km/h 66% 0 mm 81 W/m2
11:00 0.2 °C -5.4 °C 1008.4 hPa NNE 8 km/h 9.7 km/h 66% 0 mm 81 W/m2
11:06 0.1 °C -5.5 °C 1008.4 hPa NE 9.7 km/h 12.9 km/h 66% 0 mm 70 W/m2
11:12 0.1 °C -5.6 °C 1008 hPa East 9.7 km/h 24.1 km/h 66% 0 mm 63 W/m2
11:18 0.1 °C -5.3 °C 1008 hPa East 9.7 km/h 24.1 km/h 67% 0 mm 69 W/m2
11:24 0.1 °C -5.3 °C 1007.7 hPa NE 11.3 km/h 12.9 km/h 67% 0 mm 60 W/m2
11:30 0 °C -5.4 °C 1007.7 hPa ENE 11.3 km/h 11.3 km/h 67% 0 mm 69 W/m2
11:36 0 °C -5.2 °C 1007.7 hPa ESE 9.7 km/h 14.5 km/h 68% 0 mm 67 W/m2
11:42 0.1 °C -5.2 °C 1007.3 hPa ESE 9.7 km/h 9.7 km/h 68% 0 mm 84 W/m2
11:48 0.1 °C -5.1 °C 1007.3 hPa ENE 8 km/h 9.7 km/h 68% 0 mm 84 W/m2
11:54 0.1 °C -5.2 °C 1006.7 hPa NNE 9.7 km/h 20.9 km/h 68% 0 mm 90 W/m2
12:00 0.1 °C -5.2 °C 1006.7 hPa ENE 9.7 km/h 16.1 km/h 68% 0 mm 77 W/m2
12:06 0.1 °C -4.9 °C 1006.7 hPa East 8 km/h 16.1 km/h 69% 0 mm 86 W/m2
12:12 0.1 °C -4.8 °C 1006.3 hPa ENE 9.7 km/h 11.3 km/h 70% 0 mm 88 W/m2
12:18 -0.1 °C -4.3 °C 1006.3 hPa ENE 9.7 km/h 17.7 km/h 73% 0 mm 69 W/m2
12:26 -0.3 °C -4 °C 1006.3 hPa SE 9.7 km/h 9.7 km/h 76% 0 mm 56 W/m2
12:32 -0.3 °C -3.9 °C 1006 hPa East 9.7 km/h 11.3 km/h 77% 0 mm 67 W/m2
12:38 -0.4 °C -3.7 °C 1005.6 hPa ESE 9.7 km/h 12.9 km/h 79% 0 mm 74 W/m2
12:44 -0.6 °C -3.4 °C 1005.6 hPa East 9.7 km/h 20.9 km/h 81% 0 mm 62 W/m2
12:50 -0.7 °C -3.3 °C 1005.6 hPa NNE 9.7 km/h 9.7 km/h 82% 0 mm 56 W/m2
12:56 -0.8 °C -3.2 °C 1005.3 hPa ENE 9.7 km/h 14.5 km/h 84% 0 mm 67 W/m2
13:02 -0.8 °C -3 °C 1005 hPa ENE 11.3 km/h 11.3 km/h 85% 0 mm 63 W/m2
13:08 -0.7 °C -2.8 °C 1005 hPa ENE 8 km/h 11.3 km/h 86% 0 mm 76 W/m2
13:14 -0.7 °C -2.6 °C 1004.6 hPa ENE 1.6 km/h 6.4 km/h 87% 0 mm 62 W/m2
13:20 -0.7 °C -2.6 °C 1004.6 hPa Calm     87% 0 mm 62 W/m2
13:26 -0.7 °C -2.4 °C 1004.3 hPa Calm     88% 0 mm 65 W/m2
13:32 -0.7 °C -2.4 °C 1004.3 hPa Calm     88% 0 mm 63 W/m2
13:38 -0.7 °C -2.4 °C 1003.9 hPa Calm     88% 0 mm 56 W/m2
13:44 -0.6 °C -2.2 °C 1003.9 hPa Calm     89% 0 mm 60 W/m2
13:50 -0.6 °C -2.2 °C 1003.9 hPa Calm     89% 0 mm 47 W/m2
13:56 -0.6 °C -2.2 °C 1003.9 hPa Calm     89% 0 mm 40 W/m2
14:02 -0.5 °C -1.9 °C 1003.9 hPa Calm     90% 0 mm 44 W/m2
14:08 -0.4 °C -1.9 °C 1003.6 hPa Calm     90% 0 mm 49 W/m2
14:14 -0.4 °C -1.8 °C 1003.6 hPa Calm     90% 0 mm 54 W/m2
14:20 -0.4 °C -1.8 °C 1003.3 hPa Calm     90% 0 mm 46 W/m2
14:26 -0.4 °C -1.8 °C 1002.9 hPa Calm     90% 0 mm 47 W/m2
14:32 -0.4 °C -1.8 °C 1002.9 hPa Calm     90% 0 mm 40 W/m2
14:38 -0.3 °C -1.6 °C 1002.9 hPa Calm     91% 0 mm 40 W/m2
14:44 -0.3 °C -1.6 °C 1002.6 hPa Calm     91% 0 mm 37 W/m2
14:50 -0.3 °C -1.6 °C 1002.6 hPa Calm     91% 0 mm 37 W/m2
14:56 -0.3 °C -1.6 °C 1002.3 hPa Calm     91% 0 mm 44 W/m2
15:02 -0.2 °C -1.5 °C 1002.3 hPa Calm     91% 0 mm 30 W/m2
15:08 -0.2 °C -1.4 °C 1002.6 hPa Calm     91% 0 mm 19 W/m2
15:14 -0.2 °C -1.4 °C 1002.3 hPa Calm     91% 0 mm 30 W/m2
15:20 -0.2 °C -1.4 °C 1002.3 hPa Calm     91% 0 mm 26 W/m2
15:26 -0.1 °C -1.4 °C 1001.9 hPa Calm     91% 0 mm 28 W/m2
15:32 -0.1 °C -1.4 °C 1001.6 hPa Calm     91% 0 mm 32 W/m2
15:38 -0.1 °C -1.3 °C 1001.9 hPa Calm     91% 0 mm 16 W/m2
15:44 -0.1 °C -1.3 °C 1001.6 hPa Calm     91% 0 mm 14 W/m2
15:50 -0.1 °C -1.3 °C 1001.2 hPa Calm     91% 0 mm 19 W/m2
15:56 -0.1 °C -1.3 °C 1001.2 hPa Calm     91% 0 mm 14 W/m2
16:02 -0.1 °C -1.3 °C 1000.9 hPa Calm     91% 0 mm 21 W/m2
16:08 0 °C -1.3 °C 1000.9 hPa Calm     91% 0 mm 14 W/m2
16:14 0.1 °C -1.2 °C 1000.9 hPa Calm     91% 0 mm 12 W/m2
16:20 0.1 °C -1.2 °C 1000.9 hPa Calm     91% 0 mm 7 W/m2
16:26 0.1 °C -1.1 °C 1000.9 hPa Calm     92% 0 mm 5 W/m2
16:32 0.2 °C -1 °C 1000.2 hPa Calm     92% 0 mm 5 W/m2
16:38 0.2 °C -1 °C 1000.2 hPa Calm     92% 0 mm 5 W/m2
16:44 0.2 °C -0.9 °C 1000.2 hPa Calm     92% 0 mm 7 W/m2
16:50 0.3 °C -0.9 °C 999.9 hPa Calm     92% 0 mm 5 W/m2
16:56 0.3 °C -0.9 °C 999.9 hPa Calm     92% 0 mm 0 W/m2
17:02 0.3 °C -0.8 °C 999.5 hPa Calm     92% 0 mm 0 W/m2
17:08 0.3 °C -0.8 °C 999.9 hPa Calm     92% 0 mm 0 W/m2
17:14 0.3 °C -0.8 °C 999.5 hPa Calm     92% 0 mm 0 W/m2
17:20 0.4 °C -0.8 °C 999.5 hPa Calm     92% 0 mm 0 W/m2
17:26 0.4 °C -0.8 °C 999.2 hPa Calm     92% 0 mm 0 W/m2
17:32 0.4 °C -0.8 °C 999.2 hPa Calm     92% 0 mm 0 W/m2
17:38 0.4 °C -0.8 °C 999.2 hPa Calm     92% 0 mm 0 W/m2
17:44 0.4 °C -0.8 °C 999.2 hPa Calm     92% 0 mm 0 W/m2
17:48 0.3 °C -0.8 °C 999.2 hPa Calm     92% 0 mm 0 W/m2
17:54 0.4 °C -0.8 °C 998.9 hPa Calm     92% 0 mm 0 W/m2
18:00 0.4 °C -0.7 °C 998.9 hPa ENE 1.6 km/h 1.6 km/h 92% 0 mm 0 W/m2
18:06 0.4 °C -0.7 °C 998.9 hPa East 4.8 km/h 8 km/h 92% 0 mm 0 W/m2
18:12 0.4 °C -0.6 °C 998.5 hPa ENE 8 km/h 8 km/h 93% 0 mm 0 W/m2
18:18 0.5 °C -0.5 °C 998.2 hPa ENE 8 km/h 16.1 km/h 93% 0 mm 0 W/m2
18:24 0.5 °C -0.7 °C 998.2 hPa East 8 km/h 9.7 km/h 92% 0 mm 0 W/m2
18:30 0.6 °C -0.6 °C 998.2 hPa ENE 8 km/h 12.9 km/h 92% 0 mm 0 W/m2
18:36 0.6 °C -0.4 °C 997.9 hPa East 8 km/h 12.9 km/h 93% 0 mm 0 W/m2
18:42 0.6 °C -0.4 °C 997.5 hPa ENE 8 km/h 8 km/h 93% 0 mm 0 W/m2
18:48 0.6 °C -0.4 °C 997.5 hPa East 8 km/h 8 km/h 93% 0 mm 0 W/m2
18:54 0.7 °C -0.3 °C 997.5 hPa East 8 km/h 9.7 km/h 93% 0 mm 0 W/m2
19:00 0.8 °C -0.2 °C 997.2 hPa ENE 8 km/h 8 km/h 93% 0 mm 0 W/m2
19:06 0.8 °C -0.2 °C 997.2 hPa East 6.4 km/h 8 km/h 93% 0 mm 0 W/m2
19:12 0.8 °C -0.2 °C 996.8 hPa ENE 6.4 km/h 8 km/h 93% 0 mm 0 W/m2
19:18 0.8 °C -0.2 °C 996.8 hPa ENE 8 km/h 8 km/h 93% 0 mm 0 W/m2
19:24 0.9 °C -0.1 °C 996.8 hPa East 8 km/h 11.3 km/h 93% 0 mm 0 W/m2
19:30 1.1 °C 0.1 °C 996.5 hPa ENE 8 km/h 8 km/h 93% 0 mm 0 W/m2
19:36 1.1 °C 0.1 °C 996.5 hPa ENE 8 km/h 11.3 km/h 93% 0 mm 0 W/m2
19:42 1.2 °C 0.2 °C 996.5 hPa ENE 4.8 km/h 9.7 km/h 93% 0 mm 0 W/m2
19:48 1.3 °C 0.3 °C 996.5 hPa East 4.8 km/h 9.7 km/h 93% 0 mm 0 W/m2
19:54 1.3 °C 0.3 °C 996.5 hPa ENE 6.4 km/h 6.4 km/h 93% 0 mm 0 W/m2
20:00 1.3 °C 0.3 °C 996.5 hPa ENE 6.4 km/h 6.4 km/h 93% 0 mm 0 W/m2
20:06 1.3 °C 0.3 °C 996.5 hPa ENE 4.8 km/h 6.4 km/h 93% 0 mm 0 W/m2
20:12 1.4 °C 0.4 °C 996.5 hPa SE 4.8 km/h 6.4 km/h 93% 0 mm 0 W/m2
20:18 1.4 °C 0.4 °C 996.2 hPa ENE 4.8 km/h 6.4 km/h 93% 0 mm 0 W/m2
20:24 1.4 °C 0.4 °C 996.2 hPa ENE 4.8 km/h 6.4 km/h 93% 0 mm 0 W/m2
20:30 1.6 °C 0.6 °C 995.8 hPa East 3.2 km/h 3.2 km/h 93% 0 mm 0 W/m2
20:36 1.3 °C 0.3 °C 995.8 hPa East 1.6 km/h 4.8 km/h 93% 0 mm 0 W/m2
20:42 1.2 °C 0.2 °C 995.8 hPa East 1.6 km/h 4.8 km/h 93% 0 mm 0 W/m2
20:48 1.3 °C 0.3 °C 995.5 hPa NNE 1.6 km/h 4.8 km/h 93% 0 mm 0 W/m2
20:54 1.4 °C 0.4 °C 995.5 hPa ESE 1.6 km/h 4.8 km/h 93% 0 mm 0 W/m2
21:00 1.3 °C 0.3 °C 995.5 hPa ENE 3.2 km/h 4.8 km/h 93% 0 mm 0 W/m2
21:06 1.3 °C 0.3 °C 995.5 hPa ENE 3.2 km/h 4.8 km/h 93% 0 mm 0 W/m2
21:12 1.3 °C 0.3 °C 995.5 hPa East 3.2 km/h 4.8 km/h 93% 0 mm 0 W/m2
21:18 3.6 °C 2.7 °C 995.1 hPa South 4.8 km/h 8 km/h 94% 0 mm 0 W/m2
21:24 5.2 °C 4.3 °C 995.1 hPa SE 6.4 km/h 9.7 km/h 94% 0 mm 0 W/m2
21:30 4.9 °C 4.1 °C 995.1 hPa ENE 3.2 km/h 3.2 km/h 94% 0 mm 0 W/m2
21:36 4.8 °C 3.9 °C 994.8 hPa East 3.2 km/h 8 km/h 94% 0 mm 0 W/m2
21:42 5.1 °C 4.2 °C 995.1 hPa SE 4.8 km/h 4.8 km/h 94% 0 mm 0 W/m2
21:48 5.7 °C 4.7 °C 994.8 hPa SE 4.8 km/h 4.8 km/h 93% 0 mm 0 W/m2
21:54 5.4 °C 4.2 °C 994.8 hPa ESE 3.2 km/h 3.2 km/h 92% 0 mm 0 W/m2
22:00 5.9 °C 4.7 °C 994.5 hPa WSW 3.2 km/h 3.2 km/h 92% 0 mm 0 W/m2
22:06 5.8 °C 4.5 °C 994.5 hPa South 3.2 km/h 3.2 km/h 91% 0 mm 0 W/m2
22:12 6.3 °C 4.9 °C 994.5 hPa East 3.2 km/h 6.4 km/h 91% 0 mm 0 W/m2
22:18 6.1 °C 4.6 °C 994.5 hPa South 4.8 km/h 6.4 km/h 90% 0 mm 0 W/m2
22:24 6.3 °C 4.8 °C 994.5 hPa ENE 3.2 km/h 4.8 km/h 90% 0 mm 0 W/m2
22:30 7.1 °C 5.4 °C 994.1 hPa ESE 6.4 km/h 6.4 km/h 89% 0 mm 0 W/m2
22:36 7.3 °C 5.3 °C 994.1 hPa SSE 8 km/h 11.3 km/h 87% 0 mm 0 W/m2
22:42 7.6 °C 5.4 °C 993.8 hPa South 9.7 km/h 12.9 km/h 86% 0 mm 0 W/m2
22:48 7.7 °C 5.7 °C 993.8 hPa SSE 8 km/h 12.9 km/h 87% 0 mm 0 W/m2
22:54 7.8 °C 5.6 °C 993.5 hPa SSE 9.7 km/h 9.7 km/h 86% 0 mm 0 W/m2
23:00 7.8 °C 5.6 °C 993.5 hPa SSE 9.7 km/h 9.7 km/h 86% 0 mm 0 W/m2
23:06 7.9 °C 5.7 °C 993.5 hPa South 9.7 km/h 12.9 km/h 86% 0 mm 0 W/m2
23:12 7.7 °C 5.3 °C 993.8 hPa SSW 9.7 km/h 9.7 km/h 85% 0 mm 0 W/m2
23:18 7.8 °C 5.6 °C 993.8 hPa South 6.4 km/h 11.3 km/h 86% 0 mm 0 W/m2
23:24 7.8 °C 5.6 °C 993.5 hPa SE 9.7 km/h 11.3 km/h 86% 0 mm 0 W/m2
23:30 7.6 °C 5.4 °C 993.1 hPa SSE 9.7 km/h 14.5 km/h 86% 0 mm 0 W/m2
23:36 7.6 °C 5.4 °C 993.1 hPa SE 6.4 km/h 14.5 km/h 86% 0 mm 0 W/m2
23:42 7.6 °C 5.7 °C 993.1 hPa ESE 6.4 km/h 14.5 km/h 88% 0 mm 0 W/m2
23:48 7.8 °C 5.7 °C 993.1 hPa SSE 8 km/h 14.5 km/h 87% 0 mm 0 W/m2
23:54 7.8 °C 5.8 °C 992.8 hPa SSE 6.4 km/h 8 km/h 87% 0 mm 0 W/m2
Country Meadow, Clay, NY, USA
Compliments of Weather Underground - 2 mb